Baku airport (UBBB)

baku-airport

Baku International Airport

Heydar Aliyev International Airport is the main international airport in Azerbaijan located 20 km (12 mi) northeast of the capital Baku. The airport is the home of Azerbaijan Airlines, the national flag carrier. It is the busiest airport in Azerbaijan and of the Caucasus.

ICAO: UBBB, IATA: GYD

Charts: Jeppesen

Sceneries: freeware demos w. reduced resolution

 fs9     fsx     Prepar

payware: http://www.drzewiecki-design.net/

METAR:

UBBB 211300Z 02008KT CAVOK 26/18 Q1011 R88/CLRD// NOSIG

TAF UBBB 211109Z 2112/2212 03008KT CAVOK TX28/2112Z TN20/2202Z TEMPO 2112/2118 09008KT TEMPO 2118/2121 VRB04KT FEW050CB BECMG 2121/2123 15008KT